Location: Killam
(52.7910°N, 111.8608°W)
Time: 09:11:24
(UTC+00:00)

Oscar 11 - Visible Passes

Search period start: 14 March 2026 00:00
Search period end: 24 March 2026 00:00
Orbit: 590 x 602 km, 97.8° (Epoch: 13 March)

Date Brightness Start Highest point End Pass type
(mag) Time Alt. Az. Time Alt. Az. Time Alt. Az.
14 Mar 7.2 11:03:31 10° NNE 11:07:42 68° ESE 11:08:21 57° SSE visible
14 Mar 8.6 12:40:03 10° NNW 12:42:55 18° WNW 12:45:02 13° W visible
15 Mar 9.8 09:39:59 10° ENE 09:41:19 11° E 09:41:53 11° E visible
15 Mar 6.9 11:13:26 10° NNE 11:17:39 84° ESE 11:18:34 54° S visible
15 Mar 8.8 12:50:16 10° NNW 12:52:45 15° NW 12:55:13 10° W visible
16 Mar 9.6 09:49:09 10° NE 09:51:23 14° E 09:52:04 14° E visible
16 Mar 6.8 11:23:23 10° NNE 11:27:35 79° WNW 11:28:45 46° SSW visible
16 Mar 8.9 13:00:37 10° NNW 13:02:33 13° NW 13:04:29 10° W visible
17 Mar 9.4 09:58:38 10° NE 10:01:26 17° E 10:02:16 16° ESE visible
17 Mar 6.9 11:33:21 10° N 11:37:30 64° WNW 11:38:57 38° SW visible
18 Mar 9.1 10:08:16 10° NE 10:11:28 21° E 10:12:27 19° ESE visible
18 Mar 7.2 11:43:19 10° N 11:47:25 51° WNW 11:49:08 30° SW visible
19 Mar 8.8 10:17:58 10° NE 10:21:29 25° E 10:22:38 22° ESE visible
19 Mar 7.4 11:53:19 10° N 11:57:17 42° WNW 11:59:20 24° WSW visible
20 Mar 8.6 10:27:43 10° NNE 10:31:29 31° E 10:32:49 25° SE visible
20 Mar 7.7 12:03:20 10° N 12:07:09 34° WNW 12:09:30 19° WSW visible
21 Mar 8.2 10:37:31 10° NNE 10:41:27 38° E 10:43:00 28° SE visible
21 Mar 8.0 12:13:23 10° N 12:17:00 29° WNW 12:19:41 15° WSW visible
22 Mar 7.8 10:47:21 10° NNE 10:51:25 47° E 10:53:11 29° SSE visible
22 Mar 8.2 12:23:28 10° N 12:26:51 24° WNW 12:29:52 12° WSW visible
23 Mar 7.4 10:57:12 10° NNE 11:01:21 59° E 11:03:21 28° S visible
23 Mar 8.4 12:33:34 10° NNW 12:36:39 20° WNW 12:39:44 10° WSW visible
